Weather History for Manchester, NH

Change the Weather History Date:

Wednesday, January 2, 2013

  Actual Average Record
Temperature  
Mean Temperature 16 °F -  
Max Temperature 25 °F 34 °F 59 °F (1979)
Min Temperature 5 °F 13 °F -16 °F (1968)
Degree Days  
Heating Degree Days 50    
Moisture  
Dew Point 3 °F    
Average Humidity 56    
Maximum Humidity 67    
Minimum Humidity 50    
Precipitation  
Precipitation 0.00 in - - ()
Snow  
Snow 0.00 in - - ()
Snow Depth 9.00 in    
Sea Level Pressure  
Sea Level Pressure 30.01 in    
Wind  
Wind Speed 7 mph (WNW)    
Max Wind Speed 16 mph    
Max Gust Speed 23 mph    
Visibility 10 miles    
Events      
Averages and records for this station are not official NWS values.
T = Trace of Precipitation, MM = Missing Value Source: NWS Daily Summary

Daily Weather History Graph

Daily Weather History Graph

Search for Another Location

Airport:

Trip Planner

Search our weather history database for the weather conditions in past years. The results will help you decide how hot, cold, wet, or windy it might be!

Date:

Astronomy

Jan. 02, 2013 Rise Set
Actual Time 7:16 AM EST 4:23 PM EST
Civil Twilight 6:44 AM EST 4:55 PM EST
Nautical Twilight 6:09 AM EST 5:30 PM EST
Astronomical Twilight 5:34 AM EST 6:05 PM EST
Moon 10:01 PM EST (1/2) 9:49 AM EST (1/2)
Length of Visible Light 10h 10m
Length of Day
9h 06m
Waning Gibbous, 75% of the Moon is Illuminated
Jan 2
Waning Gibbous
Jan 4
Last Quarter
Jan 11
New
Jan 18
First Quarter
Jan 26
Full

Hourly Weather History & Observations

Time (EST) Temp. Windchill Dew Point Humidity Pressure Visibility Wind Dir Wind Speed Gust Speed Precip Events Conditions
12:53 AM 14.0 °F 8.2 °F 1.0 °F 56% 29.96 in 10.0 mi West 3.5 mph - N/A   Clear
1:53 AM 14.0 °F 5.1 °F -0.0 °F 54% 29.98 in 10.0 mi West 5.8 mph - N/A   Clear
2:53 AM 14.0 °F 5.1 °F 1.0 °F 56% 29.98 in 10.0 mi West 5.8 mph - N/A   Clear
3:53 AM 12.9 °F 6.9 °F 1.0 °F 59% 29.97 in 10.0 mi West 3.5 mph - N/A   Clear
4:53 AM 12.9 °F - -0.0 °F 56% 29.96 in 10.0 mi Calm Calm - N/A   Clear
5:53 AM 12.0 °F - 1.0 °F 61% 29.97 in 10.0 mi Calm Calm - N/A   Clear
6:53 AM 10.4 °F 2.2 °F 1.4 °F 67% 29.89 in 10.0 mi SSE 4.6 mph - N/A   Mostly Cloudy
7:53 AM 12.0 °F 4.1 °F 1.0 °F 61% 29.95 in 10.0 mi South 4.6 mph - N/A   Mostly Cloudy
8:53 AM 14.0 °F 8.2 °F 3.9 °F 64% 29.95 in 10.0 mi SW 3.5 mph - N/A   Overcast
9:53 AM 19.0 °F 7.5 °F 6.1 °F 57% 29.96 in 10.0 mi WSW 10.4 mph - N/A   Overcast
10:53 AM 21.9 °F 12.5 °F 8.1 °F 55% 29.95 in 10.0 mi WSW 8.1 mph - N/A   Partly Cloudy
11:53 AM 25.0 °F 13.6 °F 10.9 °F 55% 29.94 in 10.0 mi West 12.7 mph 19.6 mph N/A   Mostly Cloudy
12:53 PM 24.1 °F 11.5 °F 10.9 °F 57% 29.94 in 10.0 mi WNW 15.0 mph 20.7 mph N/A   Overcast
1:53 PM 24.1 °F 17.0 °F 12.9 °F 62% 29.95 in 10.0 mi WSW 5.8 mph - N/A   Mostly Cloudy
2:53 PM 25.0 °F 13.1 °F 10.0 °F 53% 29.99 in 10.0 mi NNW 13.8 mph 21.9 mph N/A   Mostly Cloudy
3:53 PM 23.0 °F 11.7 °F 10.0 °F 58% 30.01 in 10.0 mi NW 11.5 mph 19.6 mph N/A   Mostly Cloudy
4:53 PM 19.9 °F 8.6 °F 6.1 °F 55% 30.04 in 10.0 mi NNW 10.4 mph - N/A   Partly Cloudy
5:53 PM 19.0 °F 11.1 °F 3.9 °F 52% 30.07 in 10.0 mi NNW 5.8 mph - N/A   Partly Cloudy
6:53 PM 17.1 °F 2.5 °F 1.9 °F 52% 30.10 in 10.0 mi North 15.0 mph - N/A   Clear
7:53 PM 12.9 °F -0.9 °F -0.0 °F 56% 30.12 in 10.0 mi NW 11.5 mph 18.4 mph N/A   Clear
8:53 PM 10.0 °F -5.2 °F -4.0 °F 53% 30.14 in 10.0 mi NW 12.7 mph - N/A   Clear
9:53 PM 8.1 °F -9.6 °F -6.0 °F 53% 30.16 in 10.0 mi WNW 16.1 mph 23.0 mph N/A   Clear
10:53 PM 6.1 °F -10.9 °F -9.0 °F 50% 30.16 in 10.0 mi NW 13.8 mph - N/A   Clear
11:53 PM 5.0 °F -9.1 °F -9.0 °F 52% 30.17 in 10.0 mi NNW 9.2 mph 16.1 mph N/A   Clear